Year,Month,Day,Hour,Minute,Value (Times are PST for temperature in C)
2019,06,15,00,00,13.10
2019,06,15,00,01,13.10
2019,06,15,00,02,13.00
2019,06,15,00,03,13.00
2019,06,15,00,04,13.00
2019,06,15,00,05,13.00
2019,06,15,00,06,12.90
2019,06,15,00,07,12.90
2019,06,15,00,08,12.90
2019,06,15,00,09,12.90
2019,06,15,00,10,12.90
2019,06,15,00,11,12.90
2019,06,15,00,12,12.80
2019,06,15,00,13,12.80
2019,06,15,00,14,12.80
2019,06,15,00,15,12.80
2019,06,15,00,16,12.80
2019,06,15,00,17,12.80
2019,06,15,00,18,12.80
2019,06,15,00,19,12.80
2019,06,15,00,20,12.80
2019,06,15,00,21,12.80
2019,06,15,00,22,12.80
2019,06,15,00,23,12.80
2019,06,15,00,24,12.80
2019,06,15,00,25,12.70
2019,06,15,00,26,12.70
2019,06,15,00,27,12.70
2019,06,15,00,28,12.70
2019,06,15,00,29,12.70
2019,06,15,00,30,12.70
2019,06,15,00,31,12.70
2019,06,15,00,32,12.70
2019,06,15,00,33,12.60
2019,06,15,00,34,12.60
2019,06,15,00,35,12.60
2019,06,15,00,36,12.60
2019,06,15,00,37,12.60
2019,06,15,00,38,12.60
2019,06,15,00,39,12.60
2019,06,15,00,40,12.60
2019,06,15,00,41,12.60
2019,06,15,00,42,12.50
2019,06,15,00,43,12.50
2019,06,15,00,44,12.50
2019,06,15,00,45,12.50
2019,06,15,00,46,12.50
2019,06,15,00,47,12.50
2019,06,15,00,48,12.50
2019,06,15,00,49,12.50
2019,06,15,00,50,12.50
2019,06,15,00,51,12.40
2019,06,15,00,52,12.40
2019,06,15,00,53,12.40
2019,06,15,00,54,12.40
2019,06,15,00,55,12.40
2019,06,15,00,56,12.40
2019,06,15,00,57,12.40
2019,06,15,00,58,12.40
2019,06,15,00,59,12.40
2019,06,15,01,00,12.40
2019,06,15,01,01,12.40
2019,06,15,01,02,12.30
2019,06,15,01,03,12.30
2019,06,15,01,04,12.30
2019,06,15,01,05,12.30
2019,06,15,01,06,12.30
2019,06,15,01,07,12.30
2019,06,15,01,08,12.30
2019,06,15,01,09,12.20
2019,06,15,01,10,12.20
2019,06,15,01,11,12.20
2019,06,15,01,12,12.20
2019,06,15,01,13,12.20
2019,06,15,01,14,12.20
2019,06,15,01,15,12.20
2019,06,15,01,16,12.20
2019,06,15,01,17,12.20
2019,06,15,01,18,12.10
2019,06,15,01,19,12.10
2019,06,15,01,20,12.10
2019,06,15,01,21,12.10
2019,06,15,01,22,12.10
2019,06,15,01,23,12.10
2019,06,15,01,24,12.10
2019,06,15,01,25,12.10
2019,06,15,01,26,12.10
2019,06,15,01,27,12.10
2019,06,15,01,28,12.10
2019,06,15,01,29,12.10
2019,06,15,01,30,12.10
2019,06,15,01,31,12.00
2019,06,15,01,32,12.00
2019,06,15,01,33,12.00
2019,06,15,01,34,12.00
2019,06,15,01,35,12.00
2019,06,15,01,36,12.00
2019,06,15,01,37,12.00
2019,06,15,01,38,12.00
2019,06,15,01,39,11.90
2019,06,15,01,40,11.90
2019,06,15,01,41,11.90
2019,06,15,01,42,11.90
2019,06,15,01,43,11.90
2019,06,15,01,44,11.90
2019,06,15,01,45,11.90
2019,06,15,01,46,11.90
2019,06,15,01,47,11.90
2019,06,15,01,48,11.90
2019,06,15,01,49,11.90
2019,06,15,01,50,11.90
2019,06,15,01,51,11.90
2019,06,15,01,52,11.90
2019,06,15,01,53,11.90
2019,06,15,01,54,11.90
2019,06,15,01,55,11.90
2019,06,15,01,56,11.90
2019,06,15,01,57,11.90
2019,06,15,01,58,11.80
2019,06,15,01,59,11.80
2019,06,15,02,00,11.80
2019,06,15,02,01,11.80
2019,06,15,02,02,11.80
2019,06,15,02,03,11.80
2019,06,15,02,04,11.80
2019,06,15,02,05,11.80
2019,06,15,02,06,11.70
2019,06,15,02,07,11.70
2019,06,15,02,08,11.70
2019,06,15,02,09,11.70
2019,06,15,02,10,11.70
2019,06,15,02,11,11.70
2019,06,15,02,12,11.70
2019,06,15,02,13,11.70
2019,06,15,02,14,11.70
2019,06,15,02,15,11.70
2019,06,15,02,16,11.70
2019,06,15,02,17,11.60
2019,06,15,02,18,11.60
2019,06,15,02,19,11.60
2019,06,15,02,20,11.60
2019,06,15,02,21,11.60
2019,06,15,02,22,11.60
2019,06,15,02,23,11.60
2019,06,15,02,24,11.60
2019,06,15,02,25,11.60
2019,06,15,02,26,11.60
2019,06,15,02,27,11.60
2019,06,15,02,28,11.60
2019,06,15,02,29,11.60
2019,06,15,02,30,11.60
2019,06,15,02,31,11.60
2019,06,15,02,32,11.50
2019,06,15,02,33,11.50
2019,06,15,02,34,11.50
2019,06,15,02,35,11.50
2019,06,15,02,36,11.50
2019,06,15,02,37,11.40
2019,06,15,02,38,11.40
2019,06,15,02,39,11.40
2019,06,15,02,40,11.40
2019,06,15,02,41,11.40
2019,06,15,02,42,11.40
2019,06,15,02,43,11.40
2019,06,15,02,44,11.40
2019,06,15,02,45,11.40
2019,06,15,02,46,11.40
2019,06,15,02,47,11.40
2019,06,15,02,48,11.40
2019,06,15,02,49,11.40
2019,06,15,02,50,11.40
2019,06,15,02,51,11.40
2019,06,15,02,52,11.40
2019,06,15,02,53,11.40
2019,06,15,02,54,11.40
2019,06,15,02,55,11.40
2019,06,15,02,56,11.40
2019,06,15,02,57,11.40
2019,06,15,02,58,11.40
2019,06,15,02,59,11.40
2019,06,15,03,00,11.40
2019,06,15,03,01,11.40
2019,06,15,03,02,11.40
2019,06,15,03,03,11.40
2019,06,15,03,04,11.40
2019,06,15,03,05,11.40
2019,06,15,03,06,11.40
2019,06,15,03,07,11.40
2019,06,15,03,08,11.40
2019,06,15,03,09,11.30
2019,06,15,03,10,11.30
2019,06,15,03,11,11.30
2019,06,15,03,12,11.30
2019,06,15,03,13,11.30
2019,06,15,03,14,11.30
2019,06,15,03,15,11.30
2019,06,15,03,16,11.30
2019,06,15,03,17,11.30
2019,06,15,03,18,11.30
2019,06,15,03,19,11.30
2019,06,15,03,20,11.30
2019,06,15,03,21,11.30
2019,06,15,03,22,11.30
2019,06,15,03,23,11.30
2019,06,15,03,24,11.30
2019,06,15,03,25,11.30
2019,06,15,03,26,11.30
2019,06,15,03,27,11.30
2019,06,15,03,28,11.30
2019,06,15,03,29,11.30
2019,06,15,03,30,11.30
2019,06,15,03,31,11.30
2019,06,15,03,32,11.20
2019,06,15,03,33,11.20
2019,06,15,03,34,11.20
2019,06,15,03,35,11.20
2019,06,15,03,36,11.20
2019,06,15,03,37,11.20
2019,06,15,03,38,11.20
2019,06,15,03,39,11.20
2019,06,15,03,40,11.20
2019,06,15,03,41,11.20
2019,06,15,03,42,11.20
2019,06,15,03,43,11.20
2019,06,15,03,44,11.20
2019,06,15,03,45,11.20
2019,06,15,03,46,11.20
2019,06,15,03,47,11.20
2019,06,15,03,48,11.30
2019,06,15,03,49,11.30
2019,06,15,03,50,11.30
2019,06,15,03,51,11.30
2019,06,15,03,52,11.30
2019,06,15,03,53,11.30
2019,06,15,03,54,11.30
2019,06,15,03,55,11.40
2019,06,15,03,56,11.40
2019,06,15,03,57,11.40
2019,06,15,03,58,11.40
2019,06,15,03,59,11.40
2019,06,15,04,00,11.40
2019,06,15,04,01,11.40
2019,06,15,04,02,11.30
2019,06,15,04,03,11.30
2019,06,15,04,04,11.30
2019,06,15,04,05,11.30
2019,06,15,04,06,11.30
2019,06,15,04,07,11.30
2019,06,15,04,08,11.30
2019,06,15,04,09,11.30
2019,06,15,04,10,11.30
2019,06,15,04,11,11.30
2019,06,15,04,12,11.30
2019,06,15,04,13,11.30
2019,06,15,04,14,11.30
2019,06,15,04,15,11.40
2019,06,15,04,16,11.40
2019,06,15,04,17,11.40
2019,06,15,04,18,11.40
2019,06,15,04,19,11.40
2019,06,15,04,20,11.40
2019,06,15,04,21,11.40
2019,06,15,04,22,11.40
2019,06,15,04,23,11.40
2019,06,15,04,24,11.50
2019,06,15,04,25,11.50
2019,06,15,04,26,11.60
2019,06,15,04,27,11.60
2019,06,15,04,28,11.70
2019,06,15,04,29,11.70
2019,06,15,04,30,11.80
2019,06,15,04,31,11.80
2019,06,15,04,32,11.80
2019,06,15,04,33,11.80
2019,06,15,04,34,11.80
2019,06,15,04,35,11.70
2019,06,15,04,36,11.80
2019,06,15,04,37,11.70
2019,06,15,04,38,11.70
2019,06,15,04,39,11.70
2019,06,15,04,40,11.70
2019,06,15,04,41,11.70
2019,06,15,04,42,11.70
2019,06,15,04,43,11.60
2019,06,15,04,44,11.60
2019,06,15,04,45,11.60
2019,06,15,04,46,11.60
2019,06,15,04,47,11.50
2019,06,15,04,48,11.50
2019,06,15,04,49,11.40
2019,06,15,04,50,11.40
2019,06,15,04,51,11.40
2019,06,15,04,52,11.40
2019,06,15,04,53,11.40
2019,06,15,04,54,11.40
2019,06,15,04,55,11.30
2019,06,15,04,56,11.30
2019,06,15,04,57,11.30
2019,06,15,04,58,11.30
2019,06,15,04,59,11.30
2019,06,15,05,00,11.30
2019,06,15,05,01,11.30
2019,06,15,05,02,11.30
2019,06,15,05,03,11.20
2019,06,15,05,04,11.20
2019,06,15,05,05,11.20
2019,06,15,05,06,11.20
2019,06,15,05,07,11.20
2019,06,15,05,08,11.20
2019,06,15,05,09,11.20
2019,06,15,05,10,11.20
2019,06,15,05,11,11.20
2019,06,15,05,12,11.30
2019,06,15,05,13,11.30
2019,06,15,05,14,11.30
2019,06,15,05,15,11.30
2019,06,15,05,16,11.30
2019,06,15,05,17,11.30
2019,06,15,05,18,11.30
2019,06,15,05,19,11.20
2019,06,15,05,20,11.20
2019,06,15,05,21,11.20
2019,06,15,05,22,11.20
2019,06,15,05,23,11.20
2019,06,15,05,24,11.10
2019,06,15,05,25,11.10
2019,06,15,05,26,11.10
2019,06,15,05,27,11.10
2019,06,15,05,28,11.10
2019,06,15,05,29,11.10
2019,06,15,05,30,11.10
2019,06,15,05,31,11.10
2019,06,15,05,32,11.10
2019,06,15,05,33,11.10
2019,06,15,05,34,11.20
2019,06,15,05,35,11.20
2019,06,15,05,36,11.20
2019,06,15,05,37,11.20
2019,06,15,05,38,11.20
2019,06,15,05,39,11.30
2019,06,15,05,40,11.30
2019,06,15,05,41,11.30
2019,06,15,05,42,11.30
2019,06,15,05,43,11.30
2019,06,15,05,44,11.40
2019,06,15,05,45,11.40
2019,06,15,05,46,11.40
2019,06,15,05,47,11.40
2019,06,15,05,48,11.40
2019,06,15,05,49,11.50
2019,06,15,05,50,11.50
2019,06,15,05,51,11.60
2019,06,15,05,52,11.60
2019,06,15,05,53,11.60
2019,06,15,05,54,11.60
2019,06,15,05,55,11.60
2019,06,15,05,56,11.60
2019,06,15,05,57,11.60
2019,06,15,05,58,11.60
2019,06,15,05,59,11.60
2019,06,15,06,00,11.60
2019,06,15,06,01,11.60
2019,06,15,06,02,11.70
2019,06,15,06,03,11.70
2019,06,15,06,04,11.70
2019,06,15,06,05,11.70
2019,06,15,06,06,11.70
2019,06,15,06,07,11.80
2019,06,15,06,08,11.80
2019,06,15,06,09,11.80
2019,06,15,06,10,11.80
2019,06,15,06,11,11.80
2019,06,15,06,12,11.80
2019,06,15,06,13,11.80
2019,06,15,06,14,11.80
2019,06,15,06,15,11.80
2019,06,15,06,16,11.80
2019,06,15,06,17,11.80
2019,06,15,06,18,11.80
2019,06,15,06,19,11.80
2019,06,15,06,20,11.80
2019,06,15,06,21,11.80
2019,06,15,06,22,11.90
2019,06,15,06,23,11.90
2019,06,15,06,24,12.00
2019,06,15,06,25,12.10
2019,06,15,06,26,12.10
2019,06,15,06,27,12.20
2019,06,15,06,28,12.30
2019,06,15,06,29,12.30
2019,06,15,06,30,12.40
2019,06,15,06,31,12.50
2019,06,15,06,32,12.50
2019,06,15,06,33,12.60
2019,06,15,06,34,12.70
2019,06,15,06,35,12.80
2019,06,15,06,36,12.90
2019,06,15,06,37,12.90
2019,06,15,06,38,13.00
2019,06,15,06,39,13.10
2019,06,15,06,40,13.10
2019,06,15,06,41,13.20
2019,06,15,06,42,13.30
2019,06,15,06,43,13.40
2019,06,15,06,44,13.40
2019,06,15,06,45,13.50
2019,06,15,06,46,13.60
2019,06,15,06,47,13.70
2019,06,15,06,48,13.70
2019,06,15,06,49,13.80
2019,06,15,06,50,13.90
2019,06,15,06,51,13.90
2019,06,15,06,52,14.00
2019,06,15,06,53,14.10
2019,06,15,06,54,14.20
2019,06,15,06,55,14.20
2019,06,15,06,56,14.30
2019,06,15,06,57,14.40
2019,06,15,06,58,14.40
2019,06,15,06,59,14.50
2019,06,15,07,00,14.60
2019,06,15,07,01,14.70
2019,06,15,07,02,14.70
2019,06,15,07,03,14.80
2019,06,15,07,04,14.90
2019,06,15,07,05,14.90
2019,06,15,07,06,15.00
2019,06,15,07,07,15.00
2019,06,15,07,08,15.00
2019,06,15,07,09,15.00
2019,06,15,07,10,15.00
2019,06,15,07,11,15.00
2019,06,15,07,12,15.10
2019,06,15,07,13,15.10
2019,06,15,07,14,15.10
2019,06,15,07,15,15.10
2019,06,15,07,16,15.10
2019,06,15,07,17,15.10
2019,06,15,07,18,15.10
2019,06,15,07,19,15.10
2019,06,15,07,20,15.20
2019,06,15,07,21,15.20
2019,06,15,07,22,15.20
2019,06,15,07,23,15.20
2019,06,15,07,24,15.20
2019,06,15,07,25,15.20
2019,06,15,07,26,15.30
2019,06,15,07,27,15.20
2019,06,15,07,28,15.20
2019,06,15,07,29,15.20
2019,06,15,07,30,15.30
2019,06,15,07,31,15.30
2019,06,15,07,32,15.30
2019,06,15,07,33,15.30
2019,06,15,07,34,15.40
2019,06,15,07,35,15.40
2019,06,15,07,36,15.40
2019,06,15,07,37,15.40
2019,06,15,07,38,15.40
2019,06,15,07,39,15.50
2019,06,15,07,40,15.60
2019,06,15,07,41,15.60
2019,06,15,07,42,15.70
2019,06,15,07,43,15.70
2019,06,15,07,44,15.80
2019,06,15,07,45,15.80
2019,06,15,07,46,15.80
2019,06,15,07,47,15.90
2019,06,15,07,48,16.00
2019,06,15,07,49,16.00
2019,06,15,07,50,16.10
2019,06,15,07,51,16.10
2019,06,15,07,52,16.10
2019,06,15,07,53,16.10
2019,06,15,07,54,16.20
2019,06,15,07,55,16.20
2019,06,15,07,56,16.20
2019,06,15,07,57,16.20
2019,06,15,07,58,16.30
2019,06,15,07,59,16.30
2019,06,15,08,00,16.30
2019,06,15,08,01,16.40
2019,06,15,08,02,16.40
2019,06,15,08,03,16.40
2019,06,15,08,04,16.40
2019,06,15,08,05,16.40
2019,06,15,08,06,16.40
2019,06,15,08,07,16.40
2019,06,15,08,08,16.50
2019,06,15,08,09,16.60
2019,06,15,08,10,16.60
2019,06,15,08,11,16.60
2019,06,15,08,12,16.60
2019,06,15,08,13,16.60
2019,06,15,08,14,16.60
2019,06,15,08,15,16.60
2019,06,15,08,16,16.60
2019,06,15,08,17,16.70
2019,06,15,08,18,16.70
2019,06,15,08,19,16.80
2019,06,15,08,20,16.80
2019,06,15,08,21,16.90
2019,06,15,08,22,16.90
2019,06,15,08,23,17.00
2019,06,15,08,24,17.00
2019,06,15,08,25,17.10
2019,06,15,08,26,17.10
2019,06,15,08,27,17.10
2019,06,15,08,28,17.10
2019,06,15,08,29,17.20
2019,06,15,08,30,17.20
2019,06,15,08,31,17.30
2019,06,15,08,32,17.30
2019,06,15,08,33,17.30
2019,06,15,08,34,17.40
2019,06,15,08,35,17.40
2019,06,15,08,36,17.40
2019,06,15,08,37,17.40
2019,06,15,08,38,17.40
2019,06,15,08,39,17.50
2019,06,15,08,40,17.50
2019,06,15,08,41,17.50
2019,06,15,08,42,17.60
2019,06,15,08,43,17.60
2019,06,15,08,44,17.70
2019,06,15,08,45,17.70
2019,06,15,08,46,17.70
2019,06,15,08,47,17.70
2019,06,15,08,48,17.80
2019,06,15,08,49,17.80
2019,06,15,08,50,17.80
2019,06,15,08,51,17.80
2019,06,15,08,52,17.80
2019,06,15,08,53,17.80
2019,06,15,08,54,17.80
2019,06,15,08,55,17.80
2019,06,15,08,56,17.70
2019,06,15,08,57,17.70
2019,06,15,08,58,17.70
2019,06,15,08,59,17.70
2019,06,15,09,00,17.70
2019,06,15,09,01,17.80
2019,06,15,09,02,17.80
2019,06,15,09,03,17.90
2019,06,15,09,04,17.90
2019,06,15,09,05,17.90
2019,06,15,09,06,18.00
2019,06,15,09,07,18.00
2019,06,15,09,08,18.00
2019,06,15,09,09,18.10
2019,06,15,09,10,18.20
2019,06,15,09,11,18.20
2019,06,15,09,12,18.20
2019,06,15,09,13,18.10
2019,06,15,09,14,18.10
2019,06,15,09,15,18.10
2019,06,15,09,16,18.10
2019,06,15,09,17,18.10
2019,06,15,09,18,18.20
2019,06,15,09,19,18.20
2019,06,15,09,20,18.20
2019,06,15,09,21,18.20
2019,06,15,09,22,18.20
2019,06,15,09,23,18.20
2019,06,15,09,24,18.30
2019,06,15,09,25,18.30
2019,06,15,09,26,18.40
2019,06,15,09,27,18.40
2019,06,15,09,28,18.40
2019,06,15,09,29,18.40
2019,06,15,09,30,18.40
2019,06,15,09,31,18.40
2019,06,15,09,32,18.40
2019,06,15,09,33,18.30
2019,06,15,09,34,18.30
2019,06,15,09,35,18.30
2019,06,15,09,36,18.30
2019,06,15,09,37,18.30
2019,06,15,09,38,18.40
2019,06,15,09,39,18.40
2019,06,15,09,40,18.40
2019,06,15,09,41,18.40
2019,06,15,09,42,18.30
2019,06,15,09,43,18.40
2019,06,15,09,44,18.30
2019,06,15,09,45,18.30
2019,06,15,09,46,18.30
2019,06,15,09,47,18.40
2019,06,15,09,48,18.40
2019,06,15,09,49,18.40
2019,06,15,09,50,18.40
2019,06,15,09,51,18.40
2019,06,15,09,52,18.30
2019,06,15,09,53,18.20
2019,06,15,09,54,18.20
2019,06,15,09,55,18.20
2019,06,15,09,56,18.20
2019,06,15,09,57,18.20
2019,06,15,09,58,18.20
2019,06,15,09,59,18.20
2019,06,15,10,00,18.20
2019,06,15,10,01,18.30
2019,06,15,10,02,18.30
2019,06,15,10,03,18.40
2019,06,15,10,04,18.50
2019,06,15,10,05,18.60
2019,06,15,10,06,18.60
2019,06,15,10,07,18.70
2019,06,15,10,08,18.70
2019,06,15,10,09,18.60
2019,06,15,10,10,18.60
2019,06,15,10,11,18.60
2019,06,15,10,12,18.60
2019,06,15,10,13,18.50
2019,06,15,10,14,18.50
2019,06,15,10,15,18.40
2019,06,15,10,16,18.50
2019,06,15,10,17,18.50
2019,06,15,10,18,18.50
2019,06,15,10,19,18.60
2019,06,15,10,20,18.70
2019,06,15,10,21,18.70
2019,06,15,10,22,18.70
2019,06,15,10,23,18.80
2019,06,15,10,24,18.90
2019,06,15,10,25,19.00
2019,06,15,10,26,19.00
2019,06,15,10,27,19.00
2019,06,15,10,28,19.10
2019,06,15,10,29,19.10
2019,06,15,10,30,19.10
2019,06,15,10,31,19.20
2019,06,15,10,32,19.20
2019,06,15,10,33,19.20
2019,06,15,10,34,19.20
2019,06,15,10,35,19.20
2019,06,15,10,36,19.20
2019,06,15,10,37,19.20
2019,06,15,10,38,19.20
2019,06,15,10,39,19.20
2019,06,15,10,40,19.20
2019,06,15,10,41,19.20
2019,06,15,10,42,19.20
2019,06,15,10,43,19.30
2019,06,15,10,44,19.30
2019,06,15,10,45,19.30
2019,06,15,10,46,19.30
2019,06,15,10,47,19.40
2019,06,15,10,48,19.40
2019,06,15,10,49,19.50
2019,06,15,10,50,19.50
2019,06,15,10,51,19.60
2019,06,15,10,52,19.60
2019,06,15,10,53,19.60
2019,06,15,10,54,19.60
2019,06,15,10,55,19.70
2019,06,15,10,56,19.70
2019,06,15,10,57,19.70
2019,06,15,10,58,19.70
2019,06,15,10,59,19.70
2019,06,15,11,00,19.60
2019,06,15,11,01,19.50
2019,06,15,11,02,19.50
2019,06,15,11,03,19.40
2019,06,15,11,04,19.40
2019,06,15,11,05,19.40
2019,06,15,11,06,19.40
2019,06,15,11,07,19.30
2019,06,15,11,08,19.30
2019,06,15,11,09,19.40
2019,06,15,11,10,19.50
2019,06,15,11,11,19.70
2019,06,15,11,12,19.70
2019,06,15,11,13,19.70
2019,06,15,11,14,19.70
2019,06,15,11,15,19.70
2019,06,15,11,16,19.80
2019,06,15,11,17,19.80
2019,06,15,11,18,19.80
2019,06,15,11,19,19.80
2019,06,15,11,20,19.80
2019,06,15,11,21,19.70
2019,06,15,11,22,19.70
2019,06,15,11,23,19.70
2019,06,15,11,24,19.70
2019,06,15,11,25,19.70
2019,06,15,11,26,19.70
2019,06,15,11,27,19.70
2019,06,15,11,28,19.70
2019,06,15,11,29,19.80
2019,06,15,11,30,19.80
2019,06,15,11,31,19.80
2019,06,15,11,32,19.80
2019,06,15,11,33,19.80
2019,06,15,11,34,19.80
2019,06,15,11,35,19.90
2019,06,15,11,36,19.90
2019,06,15,11,37,19.90
2019,06,15,11,38,19.90
2019,06,15,11,39,20.00
2019,06,15,11,40,20.10
2019,06,15,11,41,20.20
2019,06,15,11,42,20.20
2019,06,15,11,43,20.20
2019,06,15,11,44,20.10
2019,06,15,11,45,20.00
2019,06,15,11,46,20.00
2019,06,15,11,47,20.00
2019,06,15,11,48,19.90
2019,06,15,11,49,19.90
2019,06,15,11,50,19.80
2019,06,15,11,51,19.80
2019,06,15,11,52,19.80
2019,06,15,11,53,19.80
2019,06,15,11,54,19.80
2019,06,15,11,55,19.80
2019,06,15,11,56,19.80
2019,06,15,11,57,19.80
2019,06,15,11,58,19.90
2019,06,15,11,59,20.00
2019,06,15,12,00,20.10
2019,06,15,12,01,20.10
2019,06,15,12,02,20.00
2019,06,15,12,03,20.00
2019,06,15,12,04,19.90
2019,06,15,12,05,19.90
2019,06,15,12,06,19.90
2019,06,15,12,07,19.90
2019,06,15,12,08,20.00
2019,06,15,12,09,20.00
2019,06,15,12,10,19.90
2019,06,15,12,11,20.00
2019,06,15,12,12,20.00
2019,06,15,12,13,20.00
2019,06,15,12,14,20.00
2019,06,15,12,15,20.10
2019,06,15,12,16,20.10
2019,06,15,12,17,20.20
2019,06,15,12,18,20.20
2019,06,15,12,19,20.20
2019,06,15,12,20,20.20
2019,06,15,12,21,20.30
2019,06,15,12,22,20.40
2019,06,15,12,23,20.40
2019,06,15,12,24,20.40
2019,06,15,12,25,20.50
2019,06,15,12,26,20.50
2019,06,15,12,27,20.60
2019,06,15,12,28,20.60
2019,06,15,12,29,20.70
2019,06,15,12,30,20.80
2019,06,15,12,31,21.00
2019,06,15,12,32,21.10
2019,06,15,12,33,21.10
2019,06,15,12,34,21.10
2019,06,15,12,35,21.20
2019,06,15,12,36,21.20
2019,06,15,12,37,21.30
2019,06,15,12,38,21.30
2019,06,15,12,39,21.30
2019,06,15,12,40,21.30
2019,06,15,12,41,21.40
2019,06,15,12,42,21.40
2019,06,15,12,43,21.40
2019,06,15,12,44,21.50
2019,06,15,12,45,21.60
2019,06,15,12,46,21.70
2019,06,15,12,47,21.70
2019,06,15,12,48,21.70
2019,06,15,12,49,21.80
2019,06,15,12,50,21.80
2019,06,15,12,51,21.70
2019,06,15,12,52,21.60
2019,06,15,12,53,21.60
2019,06,15,12,54,21.50
2019,06,15,12,55,21.50
2019,06,15,12,56,21.50
2019,06,15,12,57,21.60
2019,06,15,12,58,21.50
2019,06,15,12,59,21.50
2019,06,15,13,00,21.50
2019,06,15,13,01,21.50
2019,06,15,13,02,21.40
2019,06,15,13,03,21.50
2019,06,15,13,04,21.50
2019,06,15,13,05,21.40
2019,06,15,13,06,21.40
2019,06,15,13,07,21.30
2019,06,15,13,08,21.30
2019,06,15,13,09,21.30
2019,06,15,13,10,21.30
2019,06,15,13,11,21.30
2019,06,15,13,12,21.40
2019,06,15,13,13,21.40
2019,06,15,13,14,21.30
2019,06,15,13,15,21.30
2019,06,15,13,16,21.20
2019,06,15,13,17,21.20
2019,06,15,13,18,21.20
2019,06,15,13,19,21.20
2019,06,15,13,20,21.10
2019,06,15,13,21,21.10
2019,06,15,13,22,21.10
2019,06,15,13,23,21.10
2019,06,15,13,24,21.20
2019,06,15,13,25,21.20
2019,06,15,13,26,21.10
2019,06,15,13,27,21.00
2019,06,15,13,28,21.00
2019,06,15,13,29,20.90
2019,06,15,13,30,20.90
2019,06,15,13,31,20.80
2019,06,15,13,32,20.80
2019,06,15,13,33,20.80
2019,06,15,13,34,20.80
2019,06,15,13,35,20.90
2019,06,15,13,36,20.90
2019,06,15,13,37,20.90
2019,06,15,13,38,21.00
2019,06,15,13,39,21.00
2019,06,15,13,40,21.10
2019,06,15,13,41,21.10
2019,06,15,13,42,21.10
2019,06,15,13,43,21.20
2019,06,15,13,44,21.30
2019,06,15,13,45,21.30
2019,06,15,13,46,21.40
2019,06,15,13,47,21.40
2019,06,15,13,48,21.40
2019,06,15,13,49,21.40
2019,06,15,13,50,21.40
2019,06,15,13,51,21.40
2019,06,15,13,52,21.40
2019,06,15,13,53,21.40
2019,06,15,13,54,21.40
2019,06,15,13,55,21.40
2019,06,15,13,56,21.40
2019,06,15,13,57,21.40
2019,06,15,13,58,21.40
2019,06,15,13,59,21.40
2019,06,15,14,00,21.50
2019,06,15,14,01,21.60
2019,06,15,14,02,21.70
2019,06,15,14,03,21.90
2019,06,15,14,04,21.90
2019,06,15,14,05,22.00
2019,06,15,14,06,22.10
2019,06,15,14,07,22.20
2019,06,15,14,08,22.20
2019,06,15,14,09,22.20
2019,06,15,14,10,22.20
2019,06,15,14,11,22.20
2019,06,15,14,12,22.20
2019,06,15,14,13,22.20
2019,06,15,14,14,22.20
2019,06,15,14,15,22.20
2019,06,15,14,16,22.30
2019,06,15,14,17,22.30
2019,06,15,14,18,22.30
2019,06,15,14,19,22.20
2019,06,15,14,20,22.10
2019,06,15,14,21,22.00
2019,06,15,14,22,22.00
2019,06,15,14,23,21.90
2019,06,15,14,24,21.80
2019,06,15,14,25,21.70
2019,06,15,14,26,21.70
2019,06,15,14,27,21.70
2019,06,15,14,28,21.70
2019,06,15,14,29,21.80
2019,06,15,14,30,21.90
2019,06,15,14,31,21.90
2019,06,15,14,32,22.00
2019,06,15,14,33,22.10
2019,06,15,14,34,22.20
2019,06,15,14,35,22.20
2019,06,15,14,36,22.20
2019,06,15,14,37,22.20
2019,06,15,14,38,22.30
2019,06,15,14,39,22.20
2019,06,15,14,40,22.20
2019,06,15,14,41,22.30
2019,06,15,14,42,22.30
2019,06,15,14,43,22.20
2019,06,15,14,44,22.20
2019,06,15,14,45,22.20
2019,06,15,14,46,22.20
2019,06,15,14,47,22.20
2019,06,15,14,48,22.10
2019,06,15,14,49,22.10
2019,06,15,14,50,22.10
2019,06,15,14,51,22.00
2019,06,15,14,52,22.00
2019,06,15,14,53,21.90
2019,06,15,14,54,21.90
2019,06,15,14,55,22.00
2019,06,15,14,56,22.00
2019,06,15,14,57,22.10
2019,06,15,14,58,22.10
2019,06,15,14,59,22.10
2019,06,15,15,00,22.10
2019,06,15,15,01,22.10
2019,06,15,15,02,22.20
2019,06,15,15,03,22.20
2019,06,15,15,04,22.20
2019,06,15,15,05,22.20
2019,06,15,15,06,22.30
2019,06,15,15,07,22.30
2019,06,15,15,08,22.40
2019,06,15,15,09,22.60
2019,06,15,15,10,22.80
2019,06,15,15,11,23.00
2019,06,15,15,12,23.10
2019,06,15,15,13,23.10
2019,06,15,15,14,23.10
2019,06,15,15,15,23.00
2019,06,15,15,16,23.00
2019,06,15,15,17,22.90
2019,06,15,15,18,22.90
2019,06,15,15,19,22.90
2019,06,15,15,20,22.90
2019,06,15,15,21,22.80
2019,06,15,15,22,22.80
2019,06,15,15,23,22.80
2019,06,15,15,24,22.80
2019,06,15,15,25,22.80
2019,06,15,15,26,22.80
2019,06,15,15,27,22.80
2019,06,15,15,28,22.80
2019,06,15,15,29,22.90
2019,06,15,15,30,22.90
2019,06,15,15,31,23.00
2019,06,15,15,32,23.00
2019,06,15,15,33,23.10
2019,06,15,15,34,23.20
2019,06,15,15,35,23.30
2019,06,15,15,36,23.40
2019,06,15,15,37,23.60
2019,06,15,15,38,23.70
2019,06,15,15,39,23.80
2019,06,15,15,40,23.90
2019,06,15,15,41,24.00
2019,06,15,15,42,24.00
2019,06,15,15,43,24.10
2019,06,15,15,44,24.10
2019,06,15,15,45,24.00
2019,06,15,15,46,24.00
2019,06,15,15,47,23.90
2019,06,15,15,48,24.00
2019,06,15,15,49,24.00
2019,06,15,15,50,23.90
2019,06,15,15,51,23.80
2019,06,15,15,52,23.70
2019,06,15,15,53,23.70
2019,06,15,15,54,23.60
2019,06,15,15,55,23.60
2019,06,15,15,56,23.60
2019,06,15,15,57,23.60
2019,06,15,15,58,23.70
2019,06,15,15,59,23.80
2019,06,15,16,00,23.80
2019,06,15,16,01,23.90
2019,06,15,16,02,24.00
2019,06,15,16,03,24.00
2019,06,15,16,04,24.10
2019,06,15,16,05,24.10
2019,06,15,16,06,24.10
2019,06,15,16,07,24.10
2019,06,15,16,08,24.10
2019,06,15,16,09,24.10
2019,06,15,16,10,24.10
2019,06,15,16,11,24.10
2019,06,15,16,12,24.20
2019,06,15,16,13,24.20
2019,06,15,16,14,24.20
2019,06,15,16,15,24.20
2019,06,15,16,16,24.20
2019,06,15,16,17,24.20
2019,06,15,16,18,24.20
2019,06,15,16,19,24.20
2019,06,15,16,20,24.20
2019,06,15,16,21,24.20
2019,06,15,16,22,24.10
2019,06,15,16,23,24.10
2019,06,15,16,24,24.10
2019,06,15,16,25,24.00
2019,06,15,16,26,24.00
2019,06,15,16,27,23.90
2019,06,15,16,28,23.90
2019,06,15,16,29,23.90
2019,06,15,16,30,23.90
2019,06,15,16,31,24.00
2019,06,15,16,32,24.00
2019,06,15,16,33,23.90
2019,06,15,16,34,23.90
2019,06,15,16,35,24.00
2019,06,15,16,36,24.10
2019,06,15,16,37,24.20
2019,06,15,16,38,24.30
2019,06,15,16,39,24.30
2019,06,15,16,40,24.30
2019,06,15,16,41,24.20
2019,06,15,16,42,24.20
2019,06,15,16,43,24.20
2019,06,15,16,44,24.30
2019,06,15,16,45,24.30
2019,06,15,16,46,24.40
2019,06,15,16,47,24.40
2019,06,15,16,48,24.50
2019,06,15,16,49,24.50
2019,06,15,16,50,24.60
2019,06,15,16,51,24.70
2019,06,15,16,52,24.70
2019,06,15,16,53,24.80
2019,06,15,16,54,24.80
2019,06,15,16,55,24.80
2019,06,15,16,56,24.80
2019,06,15,16,57,24.80
2019,06,15,16,58,24.80
2019,06,15,16,59,24.70
2019,06,15,17,00,24.70
2019,06,15,17,01,24.70
2019,06,15,17,02,24.70
2019,06,15,17,03,24.60
2019,06,15,17,04,24.60
2019,06,15,17,05,24.50
2019,06,15,17,06,24.40
2019,06,15,17,07,24.40
2019,06,15,17,08,24.30
2019,06,15,17,09,24.30
2019,06,15,17,10,24.30
2019,06,15,17,11,24.20
2019,06,15,17,12,24.20
2019,06,15,17,13,24.20
2019,06,15,17,14,24.20
2019,06,15,17,15,24.20
2019,06,15,17,16,24.20
2019,06,15,17,17,24.20
2019,06,15,17,18,24.20
2019,06,15,17,19,24.10